CW5102 Weather Reports


Display with metric or nautical units.
time (UTC)temp
F
wind
direction
speed
MPH
gust
MPH
rain 1hr
in
rain 24hr
in
rain mn
in
humidity
%
barometer
mb
20260509204703 61 21 5.0 22.0 0.00 0.00 0.00 23 1009.3
20260509204203 61 4 7.0 20.0 0.00 0.00 0.00 23 1009.3
20260509203704 61 17 2.0 17.0 0.00 0.00 0.00 24 1009.3
20260509202703 61 8 5.0 24.0 0.00 0.00 0.00 23 1009.3
20260509202202 61 46 2.0 20.0 0.00 0.00 0.00 25 1009.3
20260509201203 61 49 7.0 14.0 0.00 0.00 0.00 22 1009.1
20260509200703 61 16 3.0 20.0 0.00 0.00 0.00 25 1009.1
20260509200203 61 44 3.0 20.0 0.00 0.00 0.00 23 1009.1
20260509195703 61 10 5.0 16.0 0.00 0.00 0.00 24 1009.1
20260509195203 61 14 4.0 15.0 0.00 0.00 0.00 24 1009.1
20260509194203 61 6 2.0 12.0 0.00 0.00 0.00 26 1008.9
20260509193703 60 12 5.0 14.0 0.00 0.00 0.00 26 1009.0
20260509193204 60 35 4.0 14.0 0.00 0.00 0.00 26 1008.8
20260509192702 59 38 1.0 20.0 0.00 0.00 0.00 28 1008.8
20260509191703 59 7 6.0 20.0 0.00 0.00 0.00 26 1008.8
20260509191204 60 0 6.0 20.0 0.00 0.00 0.00 26 1008.9
20260509190704 60 12 6.0 16.0 0.00 0.00 0.00 26 1008.7
20260509190203 60 50 3.0 13.0 0.00 0.00 0.00 29 1008.6
20260509185703 60 354 5.0 12.0 0.00 0.00 0.00 30 1008.5
20260509185203 59 23 2.0 12.0 0.00 0.00 0.00 30 1008.4
20260509184703 59 62 2.0 15.0 0.00 0.00 0.00 29 1008.3
20260509184203 59 32 3.0 15.0 0.00 0.00 0.00 29 1008.4
20260509183204 59 352 1.0 18.0 0.00 0.00 0.00 32 1008.4
20260509182703 58 1 4.0 18.0 0.00 0.00 0.00 30 1008.4
20260509182203 58 29 2.0 17.0 0.00 0.00 0.00 33 1008.3
20260509181703 58 358 2.0 18.0 0.00 0.00 0.00 33 1008.2
20260509181203 58 22 6.0 18.0 0.00 0.00 0.00 33 1008.2
20260509180703 58 55 3.0 13.0 0.00 0.00 0.00 33 1008.1
20260509180203 58 32 1.0 14.0 0.00 0.00 0.00 35 1008.1
20260509175203 57 34 5.0 16.0 0.00 0.00 0.00 32 1008.2
20260509174703 57 23 2.0 14.0 0.00 0.00 0.00 32 1008.2
20260509174203 57 17 6.0 17.0 0.00 0.00 0.00 33 1008.2
20260509173703 57 3 4.0 20.0 0.00 0.00 0.00 33 1008.2
20260509173203 57 351 4.0 20.0 0.00 0.00 0.00 34 1008.2
20260509172703 57 4 5.0 17.0 0.00 0.00 0.00 34 1008.0
20260509171703 57 19 4.0 15.0 0.00 0.00 0.00 34 1008.0
20260509171203 57 23 2.0 15.0 0.00 0.00 0.00 34 1008.0
20260509170703 57 32 6.0 15.0 0.00 0.00 0.00 34 1007.8
20260509170203 57 49 5.0 15.0 0.00 0.00 0.00 35 1007.8
20260509165203 57 25 7.0 16.0 0.00 0.00 0.00 36 1007.7
20260509164703 56 41 3.0 14.0 0.00 0.00 0.00 36 1007.6
20260509164203 56 44 3.0 17.0 0.00 0.00 0.00 36 1007.6
20260509163203 56 6 2.0 18.0 0.00 0.00 0.00 35 1007.4
20260509162703 56 27 7.0 21.0 0.00 0.00 0.00 33 1007.3
20260509162203 56 31 7.0 21.0 0.00 0.00 0.00 33 1007.3
20260509161703 56 20 9.0 17.0 0.00 0.00 0.00 33 1007.2
20260509160703 56 63 4.0 25.0 0.00 0.00 0.00 36 1007.2
20260509160203 56 40 6.0 25.0 0.00 0.00 0.00 35 1007.1
20260509155703 56 357 2.0 12.0 0.00 0.00 0.00 37 1007.1
20260509154703 55 17 5.0 16.0 0.00 0.00 0.00 35 1006.9
20260509154203 55 29 3.0 16.0 0.00 0.00 0.00 39 1006.8
20260509153704 55 28 3.0 16.0 0.00 0.00 0.00 40 1006.8
20260509152704 55 62 6.0 18.0 0.00 0.00 0.00 40 1006.7
20260509152204 55 35 6.0 18.0 0.00 0.00 0.00 42 1006.5
20260509151704 55 17 5.0 16.0 0.00 0.00 0.00 43 1006.5
20260509151204 55 32 2.0 12.0 0.00 0.00 0.00 44 1006.5
20260509150704 55 8 1.0 12.0 0.00 0.00 0.00 47 1006.4
20260509150203 54 3 1.0 15.0 0.00 0.00 0.00 46 1006.3
20260509145703 54 77 2.0 15.0 0.00 0.00 0.00 45 1006.2
20260509145203 54 41 1.0 15.0 0.00 0.00 0.00 46 1006.2
20260509144703 54 33 2.0 13.0 0.00 0.00 0.00 47 1006.2
20260509144203 54 10 5.0 13.0 0.00 0.00 0.00 48 1006.1
20260509143703 53 30 1.0 20.0 0.00 0.00 0.00 50 1006.1
20260509142203 52 38 3.0 18.0 0.00 0.00 0.00 53 1006.0
20260509141703 52 59 6.0 18.0 0.00 0.00 0.00 53 1005.9
20260509140203 53 84 3.0 14.0 0.00 0.00 0.00 56 1005.6
20260509135703 52 60 3.0 13.0 0.00 0.00 0.00 59 1005.6
20260509135204 52 62 3.0 9.0 0.00 0.00 0.00 60 1005.6
20260509134204 52 12 2.0 12.0 0.00 0.00 0.00 61 1005.4
20260509133704 52 58 2.0 12.0 0.00 0.00 0.00 62 1005.4
20260509132703 52 21 3.0 9.0 0.00 0.00 0.00 64 1005.2
20260509132204 51 31 2.0 13.0 0.00 0.00 0.00 66 1005.1
20260509131703 51 23 2.0 13.0 0.00 0.00 0.00 66 1005.0
20260509130204 51 37 2.0 15.0 0.00 0.00 0.00 66 1004.8
20260509125704 51 22 7.0 15.0 0.00 0.00 0.00 65 1004.6
20260509125204 51 3 4.0 13.0 0.00 0.00 0.00 65 1004.5
20260509124204 52 35 1.0 10.0 0.00 0.00 0.00 66 1004.4
20260509123703 51 46 1.0 16.0 0.00 0.00 0.00 67 1004.3
20260509122703 52 59 3.0 20.0 0.00 0.00 0.00 68 1004.2
20260509122203 52 34 3.0 20.0 0.00 0.00 0.00 67 1004.1
20260509121704 52 18 6.0 16.0 0.00 0.00 0.00 66 1003.9
20260509121203 52 16 6.0 16.0 0.00 0.00 0.00 67 1003.9
20260509120703 52 20 6.0 14.0 0.00 0.00 0.00 67 1003.8
20260509120204 52 34 3.0 14.0 0.00 0.00 0.00 68 1003.7
20260509115704 52 6 5.0 14.0 0.00 0.00 0.00 67 1003.6
20260509114704 52 12 5.0 9.0 0.00 0.00 0.00 67 1003.5
20260509114203 52 20 1.0 12.0 0.00 0.00 0.00 67 1003.4
20260509113703 52 5 2.0 15.0 0.00 0.00 0.00 67 1003.3
20260509113204 52 23 2.0 15.0 0.00 0.00 0.00 67 1003.0
20260509112704 52 333 2.0 15.0 0.00 0.00 0.00 67 1003.0
20260509112204 52 353 1.0 12.0 0.00 0.00 0.00 66 1002.9
20260509111704 52 0 0.0 2.0 0.00 0.00 0.00 65 1002.8
20260509111203 52 0 0.0 2.0 0.00 0.00 0.00 65 1002.7
20260509110704 52 0 0.0 2.0 0.00 0.00 0.00 64 1002.6
20260509110203 52 0 0.0 1.0 0.00 0.00 0.00 64 1002.4
20260509105703 52 0 0.0 1.0 0.00 0.00 0.00 63 1002.4
20260509105204 52 0 0.0 0.0 0.00 0.00 0.00 63 1002.3
20260509104704 52 0 0.0 0.0 0.00 0.00 0.00 63 1002.2
20260509104204 52 0 0.0 0.0 0.00 0.00 0.00 63 1002.2
20260509103204 53 0 0.0 3.0 0.00 0.00 0.00 62 1002.3
20260509102704 53 0 0.0 7.0 0.00 0.00 0.00 60 1002.2
20260509101204 53 49 0.0 6.0 0.00 0.00 0.00 58 1002.2
20260509100703 53 35 0.0 0.0 0.00 0.00 0.00 57 1002.0
20260509100203 53 35 0.0 0.0 0.00 0.00 0.00 56 1001.7
20260509095704 53 35 0.0 5.0 0.00 0.00 0.00 55 1001.8
20260509095203 53 37 0.0 6.0 0.00 0.00 0.00 55 1002.1
20260509094703 53 52 1.0 6.0 0.00 0.00 0.00 54 1002.3
20260509093704 53 8 0.0 3.0 0.00 0.00 0.00 54 1002.6
20260509093203 53 69 0.0 3.0 0.00 0.00 0.00 53 1002.5
20260509092703 53 69 0.0 6.0 0.00 0.00 0.00 53 1002.3
20260509091703 53 0 1.0 10.0 0.00 0.00 0.00 51 1002.6
20260509091204 53 11 1.0 9.0 0.00 0.00 0.00 50 1002.6
20260509090204 53 19 1.0 6.0 0.00 0.00 0.00 47 1002.3
20260509085704 53 2 1.0 5.0 0.00 0.00 0.00 47 1002.3
20260509085204 53 53 1.0 6.0 0.00 0.00 0.00 46 1002.2
20260509084203 53 7 1.0 6.0 0.00 0.00 0.00 44 1002.2
20260509083703 53 12 3.0 8.0 0.00 0.00 0.00 44 1002.1
20260509083204 53 6 1.0 8.0 0.00 0.00 0.00 44 1002.2
20260509082703 53 21 0.0 12.0 0.00 0.00 0.00 44 1002.1
20260509082204 53 5 2.0 12.0 0.00 0.00 0.00 44 1002.2
20260509081703 53 356 0.0 7.0 0.00 0.00 0.00 45 1002.0
20260509081203 53 0 1.0 12.0 0.00 0.00 0.00 45 1002.0
20260509080702 53 18 3.0 12.0 0.00 0.00 0.00 45 1002.1
20260509080202 53 12 3.0 10.0 0.00 0.00 0.00 42 1002.1
20260509075702 53 6 0.0 3.0 0.00 0.00 0.00 42 1001.3
20260509075203 53 6 0.0 3.0 0.00 0.00 0.00 42 1001.2
20260509074702 53 6 0.0 1.0 0.00 0.00 0.00 41 1001.2
20260509074202 53 6 0.0 0.0 0.00 0.00 0.00 40 1001.1
20260509073702 53 6 0.0 0.0 0.00 0.00 0.00 40 1001.1
20260509073202 53 6 0.0 0.0 0.00 0.00 0.00 40 1001.0
20260509072702 53 6 0.0 1.0 0.00 0.00 0.00 40 1001.0
20260509072203 53 6 0.0 1.0 0.00 0.00 0.00 40 1001.1
20260509071202 54 6 0.0 0.0 0.00 0.00 0.00 39 1001.3
20260509070702 54 6 0.0 0.0 0.00 0.00 0.00 39 1001.4
20260509070202 54 6 0.0 0.0 0.00 0.00 0.00 39 1001.5
20260509065703 54 6 0.0 2.0 0.00 0.00 0.00 38 1001.4
20260509065202 53 6 0.0 2.0 0.00 0.00 0.00 38 1001.4
20260509064702 53 6 0.0 2.0 0.00 0.00 0.00 38 1001.5
20260509064202 53 6 0.0 2.0 0.00 0.00 0.00 38 1001.6
20260509063702 53 6 0.0 2.0 0.00 0.00 0.00 39 1001.5
20260509063202 53 6 0.0 2.0 0.00 0.00 0.00 39 1001.6
20260509062702 53 6 0.0 2.0 0.00 0.00 0.00 39 1001.6
20260509062203 53 6 0.0 2.0 0.00 0.00 0.00 38 1001.7
20260509061203 53 6 0.0 3.0 0.00 0.00 0.00 38 1001.6
20260509060702 53 6 0.0 3.0 0.00 0.00 0.00 38 1001.6
20260509060202 53 6 0.0 0.0 0.00 0.00 0.00 39 1001.6
20260509055702 53 6 0.0 0.0 0.00 0.00 0.00 38 1001.7
20260509055202 54 6 0.0 2.0 0.00 0.00 0.00 39 1001.7
20260509054702 54 6 0.0 2.0 0.00 0.00 0.00 37 1001.7
20260509054202 54 6 0.0 1.0 0.00 0.00 0.00 38 1001.9
20260509053702 54 6 0.0 0.0 0.00 0.00 0.00 36 1001.9
20260509053203 54 6 0.0 0.0 0.00 0.00 0.00 38 1002.2
20260509052703 54 6 0.0 0.0 0.00 0.00 0.00 36 1002.2
20260509051703 54 6 0.0 0.0 0.00 0.00 0.00 37 1002.2
20260509051202 54 6 0.0 0.0 0.00 0.00 0.00 35 1002.2
20260509050702 55 6 0.0 0.0 0.00 0.00 0.00 34 1002.2
20260509050202 55 6 0.0 0.0 0.00 0.00 0.00 34 1002.3
20260509045703 55 6 0.0 0.0 0.00 0.00 0.00 32 1002.5
20260509045202 55 6 0.0 0.0 0.00 0.00 0.00 32 1002.5
20260509044703 56 6 0.0 0.0 0.00 0.00 0.00 32 1002.6
20260509044202 56 6 0.0 0.0 0.00 0.00 0.00 32 1002.6
20260509043703 56 6 0.0 0.0 0.00 0.00 0.00 32 1002.7
20260509043203 56 6 0.0 0.0 0.00 0.00 0.00 31 1002.7
20260509042703 56 6 0.0 0.0 0.00 0.00 0.00 31 1002.7
20260509042202 57 6 0.0 1.0 0.00 0.00 0.00 30 1002.7
20260509041702 57 6 0.0 1.0 0.00 0.00 0.00 30 1002.8
20260509041202 57 6 0.0 2.0 0.00 0.00 0.00 30 1002.8
20260509040703 57 6 0.0 2.0 0.00 0.00 0.00 29 1002.9
20260509040203 58 6 0.0 6.0 0.00 0.00 0.00 29 1002.8
20260509035703 58 6 0.0 6.0 0.00 0.00 0.00 29 1002.8
20260509034703 59 4 0.0 5.0 0.00 0.00 0.00 28 1002.8
20260509034203 59 28 0.0 5.0 0.00 0.00 0.00 28 1002.8
20260509033702 59 30 1.0 7.0 0.00 0.00 0.00 28 1002.8
20260509033204 59 22 2.0 8.0 0.00 0.00 0.00 28 1002.8
20260509031202 60 4 2.0 9.0 0.00 0.00 0.00 28 1002.5
20260509030202 61 23 1.0 13.0 0.00 0.00 0.00 28 1002.6
20260509025703 61 33 3.0 14.0 0.00 0.00 0.00 27 1002.6
20260509025202 61 3 2.0 15.0 0.00 0.00 0.00 27 1002.5
20260509024703 61 1 3.0 15.0 0.00 0.00 0.00 27 1002.5
20260509024202 62 357 2.0 12.0 0.00 0.00 0.00 27 1002.3
20260509023703 62 26 4.0 12.0 0.00 0.00 0.00 27 1002.3
20260509023203 62 16 3.0 10.0 0.00 0.00 0.00 27 1002.3
20260509022702 62 5 2.0 17.0 0.00 0.00 0.00 27 1002.2
20260509022202 62 20 5.0 17.0 0.00 0.00 0.00 27 1002.1
20260509021703 63 339 3.0 12.0 0.00 0.00 0.00 26 1001.9
20260509021202 63 3 3.0 13.0 0.00 0.00 0.00 25 1001.8
20260509020702 63 16 2.0 13.0 0.00 0.00 0.00 26 1001.8
20260509020203 63 3 3.0 17.0 0.00 0.00 0.00 26 1001.7
20260509015703 63 20 2.0 17.0 0.00 0.00 0.00 25 1001.7
20260509015203 63 353 5.0 17.0 0.00 0.00 0.00 25 1001.5
20260509014202 64 11 1.0 14.0 0.00 0.00 0.00 25 1001.4
20260509013703 64 11 2.0 14.0 0.00 0.00 0.00 24 1001.3
20260509012702 64 1 1.0 12.0 0.00 0.00 0.00 23 1001.2
20260509012202 65 6 3.0 12.0 0.00 0.00 0.00 22 1001.2
20260509011703 65 22 2.0 13.0 0.00 0.00 0.00 22 1001.2
20260509011202 65 6 3.0 13.0 0.00 0.00 0.00 22 1001.1
20260509010702 66 332 2.0 13.0 0.00 0.00 0.00 21 1001.1
20260509010202 66 334 4.0 12.0 0.00 0.00 0.00 20 1001.0
20260509005703 66 348 3.0 12.0 0.00 0.00 0.00 20 1001.0
20260509005203 66 48 4.0 12.0 0.00 0.00 0.00 20 1000.9
20260509004203 67 5 2.0 10.0 0.00 0.00 0.00 20 1001.0
20260509003702 67 1 2.0 12.0 0.00 0.00 0.00 19 1000.9
20260509001703 67 357 6.0 20.0 0.00 0.00 0.00 19 1000.8
20260509000204 68 8 2.0 16.0 0.00 0.00 0.00 21 1000.8
20260508235202 68 0 4.0 17.0 0.00 0.00 0.00 20 1000.8
20260508234703 68 7 2.0 13.0 0.00 0.00 0.00 20 1000.8
20260508234202 68 5 2.0 13.0 0.00 0.00 0.00 21 1000.8
20260508233703 68 7 2.0 13.0 0.00 0.00 0.00 19 1000.9
20260508233203 68 349 4.0 13.0 0.00 0.00 0.00 22 1000.9
20260508232704 68 357 3.0 12.0 0.00 0.00 0.00 21 1000.9
20260508232203 68 31 1.0 15.0 0.00 0.00 0.00 23 1000.8
20260508231703 68 287 1.0 15.0 0.00 0.00 0.00 22 1000.9
20260508231203 68 356 2.0 15.0 0.00 0.00 0.00 21 1001.0
20260508230704 69 19 1.0 12.0 0.00 0.00 0.00 21 1001.0
20260508225703 69 339 3.0 9.0 0.00 0.00 0.00 21 1001.0
20260508225203 69 11 2.0 14.0 0.00 0.00 0.00 20 1001.0
20260508224704 69 314 2.0 14.0 0.00 0.00 0.00 21 1001.0
20260508224203 69 354 3.0 14.0 0.00 0.00 0.00 19 1000.9
20260508223202 70 10 1.0 10.0 0.00 0.00 0.00 21 1000.9
20260508222203 70 357 3.0 12.0 0.00 0.00 0.00 20 1001.0
20260508221703 70 27 0.0 7.0 0.00 0.00 0.00 21 1001.0
20260508221203 70 312 1.0 10.0 0.00 0.00 0.00 20 1001.1
20260508220703 70 357 0.0 12.0 0.00 0.00 0.00 21 1001.1
20260508220202 70 359 5.0 12.0 0.00 0.00 0.00 19 1001.0
20260508215703 70 338 1.0 8.0 0.00 0.00 0.00 22 1001.2
20260508214703 70 18 1.0 12.0 0.00 0.00 0.00 20 1001.3
20260508214204 70 341 3.0 12.0 0.00 0.00 0.00 20 1001.3
20260508213702 70 25 5.0 12.0 0.00 0.00 0.00 19 1001.4
20260508213203 70 0 1.0 12.0 0.00 0.00 0.00 19 1001.4
20260508212702 70 323 0.0 8.0 0.00 0.00 0.00 22 1001.4
20260508212202 70 57 1.0 7.0 0.00 0.00 0.00 20 1001.4
20260508211702 71 0 1.0 8.0 0.00 0.00 0.00 20 1001.4
20260508210703 69 7 1.0 7.0 0.00 0.00 0.00 19 1001.6
20260508210203 70 0 1.0 10.0 0.00 0.00 0.00 19 1001.7
20260508205703 71 15 3.0 10.0 0.00 0.00 0.00 18 1001.8